Terminal Aerodrome Forecast
Issued by NWS Portland, OR

Home | Current Version | Previous Version | Text Only | Print | Product List | Glossary On
Versions: 1 2 3 4 5 6 7 8 9 10 11 12 13 14 15 16 17 18 19 20 21 22 23 24 25 26 27 28 29 30 31 32 33 34 35 36 37 38 39 40 41 42 43 44 45 46 47 48 49
000
FTUS46 KPQR 020520
TAFTTD
TAF
KTTD 020520Z 0206/0306 00000KT P6SM SKC
     FM020900 00000KT 2SM BR SKC
     FM021100 00000KT 1/2SM FG BKN002
     FM021500 VRB03KT 2SM BR OVC002
     FM021800 10005KT P6SM SKC
     FM022200 10010KT P6SM SKC=

USA.gov is the U.S. government's official web portal to all federal, state and local government web resources and services.